COSMOS 1275 DEB, 12749

Orbit data source: Space-Track

COSMOS 1275 DEB, 12749 is space debris in LEO originally from a launch on Thu, 04 Jun 1981 UTC launched from the Plesetsk Missile And Space Complex (PKMTR). Debris objects in space refer to the collection of defunct objects orbiting the Earth. Examples of debris include non-operational satellites, rocket bodies, and fragments generated from explosions, collisions, or faulty payload assembly.

Loading next visibility...
Identifier
12749, 1981-053CS
Orbit
LEO
Country
Flag of CISCIS
Related business
Manufacturer
Unknown
Mission
Spacecraft
Bus & Motor
Unknown
Mass
Unknown
Launch date (UTC)
1981-06-04 (45 years ago)
Launch vehicle
Unknown
Launch site
Plesetsk Missile And Space Complex (PKMTR)
Object type
Payload
Rocket body
Debris
Shape & HBR
Unknown shape, 0.2 m
Radar Cross Section
Small (<0.1 m²)

Expand to show TLE details & history
Last TLE update: 17 hours ago

TLE from 17 hours ago
0 COSMOS 1275 DEB
1 12749U 81053CS  26107.07225912  .00000296  00000-0  28434-3 0  9995
2 12749  82.8073 121.4812 0061994 352.8322  62.3986 13.76303412237620
Epoch: 2026-04-17T01:44Z
TLE epoch observation values (Epoch: 2026-04-17T01:44:03.187Z)
Latitude
55.30069°
Longitude
-99.29664°
Altitude
965.286 km
Speed
7.385 km/s
True Right ascension
08h 47m 42s
True Declination
55° 08' 39"
Sunlit
Object was in daylight at epoch
Visualization orbit readout
Latitude
Unknown
Longitude
Unknown
Altitude
Unknown
Speed
Unknown
Apparent Right ascension
Unknown
Apparent Declination
Unknown
Sunlit
N/A
Visualization observer readout
Local Sidereal Time
01:35:32
Azimuth
Unknown
Elevation
Unknown
Doppler factor
Unknown
Orbital elements
Apogee altitude
1,019.759 km
Perigee altitude
928.599 km
Semi-major axis
7,352.316 km
Eccentricity
0.0062
Inclination
82.8073°
RAAN
121.4812°
Arg. of periapsis
352.8322°
True anomaly
63.03041°
Mean anomaly
62.3986°
Eccentric anomaly
62.71428°
Mean motion
3.44276 °/min
Orbital period
104.57 mins
BSTAR
0.00028434
Loading maneuver chart data...
Computing Atmospheric mass density...

Documentation

Showing up to 5 results
|